FENGYUN 1C DEB, 46992

Orbit data source: Space-Track

FENGYUN 1C DEB, 46992 is space debris in LEO originally from a launch on Mon, 10 May 1999 UTC launched from the Taiyaun Space Center, China (TSC). Fengyun 1C debris stems from the Chinese weather satellite Fengyun-1C, which was intentionally destroyed by a Chinese anti-satellite missile in 2007. This event dramatically increased the amount of space debris, with thousands of trackable fragments posing hazards to satellites and human spaceflight. The Fengyun 1C debris cloud has become a focal point in discussions about space sustainability and the need for international regulations to prevent the creation of new debris.

Loading next visibility...
FENGYUN 1C DEB details
Identifier
46992, 1999-025EZS
Orbit
LEO
Last TLE update2 days ago
Origin
Flag of CNCASC (CN / PRC)
ManufacturerUnknown
MissionSpacecraft
Bus & MotorUnknown
MassUnknown
Launch date (UTC)
1999-05-10 (26 years ago)
Launch vehicleUnknown
Launch site
Taiyaun Space Center, China (TSC)
Object type
Payload
Rocket body
Debris
Shape & HBRUnknown
Radar Cross SectionSmall (<0.1 m²)

Expand to show TLE details & history

TLE from 2 days ago
0 FENGYUN 1C DEB
1 46992U 99025EZS 24346.25640732  .00000700  00000-0  49143-3 0  9994
2 46992  98.8559 337.5404 0070641  96.9668 263.9538 14.00255790558270
Epoch: 2024-12-11T06:09Z
Definitive object data (Epoch: 2024-12-11T06:09:13.592Z)
Latitude-0.00009°
Longitude164.78008°
Altitude901.562 km
Speed7.398 km/s
True Right ascension22h 30m 09s
True Declination0° 00' 00"
Sunlit
Object was in daylight at TLE epoch
Visualization TLE readout
Latitude-48.94609°
Longitude-23.42061°
Altitude950.079 km
Speed7.356 km/s
Apparent Right ascension14h 48m 07s
Apparent Declination-71° 59' 49"
Sunlit
Object is in daylight
Visualization observer readout
Local Sidereal Time07:28:02
Azimuth156.3° SSE
Elevation-43.742°
Doppler factor1
Orbital elements
Apogee altitude941.445 km
Perigee altitude838.758 km
Semi-major axis7,268.238 km
Eccentricity0.0070641
Inclination98.8559°
RAAN337.5404°
Arg. of periapsis96.9668°
True anomaly263.14959°
Mean anomaly263.9538°
Eccentric anomaly263.55162°
Mean motion3.50267 °/min
BSTAR0.00049143
Orbital period102.78 mins
Loading maneuver chart data...
Loading historical data...
Loading historical data...
Loading historical data...
Loading historical data...
Loading historical data...
Loading historical data...
Loading historical data...

FENGYUN 1C DEB Visibility forecast

Observer location: undefined°, undefined

Span
Click to sort rows by Start time (UTC) header in descending order
Start Az.
Max El. time (UTC)
Max El. Az.
Max El.
End time (UTC)
End Az.
9 mins2024-12-13 11:54:21.335Z32.278° NE2024-12-13 11:58:21.335Z85.491° E32.285°2024-12-13 12:03:21.335Z164.486° S
7 mins2024-12-13 13:37:21.335Z336.687° NNW2024-12-13 13:40:21.335Z291.443° WNW24.212°2024-12-13 13:44:21.335Z241.482° WSW
9 mins2024-12-13 23:26:21.335Z158.345° S2024-12-13 23:30:21.335Z122.895° SE43.494°2024-12-13 23:35:21.335Z350.063° N
|